233  
ASUS42 KTBW 100517  
RWRFL  
FLORIDA REGIONAL WEATHER ROUNDUP  
NATIONAL WEATHER SERVICE TAMPA BAY RUSKIN FL  
100 AM EDT WED AUG 10 2022  
 
NOTE: "FAIR" INDICATES FEW OR NO CLOUDS BELOW 12,000 FEET WITH NO  
SIGNIFICANT WEATHER AND/OR S TO VISIBILITY
.  
 
FLZ001>010-012>015-112-114-115-100600-  
PANHANDLE FLORIDA  
 
CITY SKY/WX TMP DP RH WIND PRES REMARKS
 
PENSACOLA PTCLDY 77 76 96 NE3 30.10S  
CRESTVIEW PTCLDY 73 72 96 CALM 30.14R  
DUKE FIELD FAIR 73 71 92 CALM 30.12S  
VALPARAISO CLOUDY 80 71 74 E5 30.09F  
PANAMA CITY FAIR 75 73 93 E3 30.12S  
TYNDALL AFB PTCLDY 77 73 87 E5 30.11F  
APALACHICOLA PTCLDY 76 76 100 CALM 30.12F  
 
STATION/POSITION SKY/WX TEMP WIND PRES WAVE SWELL
 
AIR SEA DIR/SP/G HT/PER HT/PER  
(F) (DEG/KT/KT) (MB) (FT/S) (FT/S)  
30.1N 87.6W 82 85 130/ 10/ 12 1018.8F  
29.2N 88.2W 82 85 130/ 6/ 8 1019.6R  
28.8N 86.0W 83 90/ 12/ 14 1020.4R  
PANAMA CITY BEAC 79 87 110/ 8/ 9 1020.8R  
TOWER C 84 1020.6R  
28.5N 84.5W 84 85 140/ 12/ 16 1019.2  
 

 
FLZ011-016>038-118-127-128-134-139-239-100600-  
NORTH FLORIDA  
 
CITY SKY/WX TMP DP RH WIND PRES REMARKS
 
MARIANNA PTCLDY 73 72 96 CALM 30.13R  
TALLAHASSEE PTCLDY 72 71 97 E5 30.15S  
LIVE OAK CLOUDY 72 72 100 CALM 30.18S  
CROSS CITY PTCLDY 74 73 98 N5 30.17S  
LAKE CITY FAIR 72 70 94 CALM 30.18F  
GAINESVILLE CLOUDY 79 74 84 N5 30.19S  
WILLISTON FAIR 76 73 92 CALM 30.17S  
PALATKA CLOUDY 75 73 94 SE5 30.17F  
MAYPORT NAS CLEAR 80 77 90 SW6 30.18R  
JACKSONVILLE MOCLDY 77 75 93 NW3 30.17S  
JAX NAS MOCLDY 82 77 84 S8 30.19R  
JAX CECIL PTCLDY 77 79 100 CALM 30.18S  
FERNANDINA BEA FAIR 81 77 89 S3 30.19R  
ST AUGUSTINE CLEAR N/A N/A N/A CALM 30.19S  
 
STATION/POSITION SKY/WX TEMP WIND PRES WAVE SWELL
 
AIR SEA DIR/SP/G HT/PER HT/PER  
(F) (DEG/KT/KT) (MB) (FT/S) (FT/S)  
SHELL POINT NOT AVBL  
KEATON BEACH 73 90/ 12/ 13 1021.2R  
CEDAR KEY 82 80/ 9/ 11 1021.4R  
FERNANDINA 86 87 160/ 3/ 5 1022.3  
30.7N 81.3W 83 84 N/A 2/ 9  
MAYPORT 82 84 220/ 3/ 5 1022.5  
31.4N 80.9W 84 85 190/ 12/ 14 1020.9 2/ 8 2/ 8  
ST AUGUSTINE 82 83 180/ 6/ 6 1022.4R  
 

 
FLZ040-043>046-052-053-057-058-063-144-100600-  
INTERIOR CENTRAL FLORIDA  
 
CITY SKY/WX TMP DP RH WIND PRES REMARKS
 
OCALA MOCLDY 77 74 90 N5 30.17F  
LEESBURG PTCLDY 81 78 91 E6 30.17S  
SANFORD CLEAR 78 76 93 NE6 30.16F  
ORLANDO EXEC PTCLDY 81 76 84 E3 30.16F  
ORLANDO INTL MOCLDY 80 77 90 E3 30.15F  
KISSIMMEE CLEAR 77 76 96 CALM 30.17S  
WINTER HAVEN PTCLDY 79 74 84 E6 30.16S  
LAKELAND INTL CLEAR 76 71 86 CALM 30.16S  
BARTOW FAIR 75 73 94 E3 30.16S  
SEBRING FAIR 75 N/A N/A N3 30.15F  
OKEECHOBEE CLEAR 77 77 100 NE3 30.14S  
 

 
FLZ041-047-054-059-064-141-147-100600-  
EAST CENTRAL FLORIDA  
 
CITY SKY/WX TMP DP RH WIND PRES REMARKS
 
DAYTONA BEACH MOCLDY 79 76 90 CALM 30.18R  
DELAND CLEAR 76 75 96 E3 30.18F  
CAPE CANAVERAL CLEAR 80 78 91 SE7 30.14F  
PATRICK AFB PTCLDY 84 76 76 E10 30.13F  
MELBOURNE LGT RAIN 81 77 88 SE6 30.15F FOG  
VERO BEACH MOCLDY 80 80 100 CALM 30.15S  
FT PIERCE PTCLDY 78 74 87 CALM 30.14F  
STUART CLEAR 82 75 78 MISG 30.16S  
 
STATION/POSITION SKY/WX TEMP WIND PRES WAVE SWELL
 
AIR SEA DIR/SP/G HT/PER HT/PER  
(F) (DEG/KT/KT) (MB) (FT/S) (FT/S)  
28.5N 80.2W 84 83 130/ 10/ 12 1020.7R  
28.9N 78.5W 84 86 130/ 10/ 14 1022.1R  
TRIDENT PIER 82 87 130/ 5/ 7 N/A  
28.4N 80.5W 83 N/A 2/ 5  
27.6N 80.2W 81 N/A 3/ 5  
 

 
FLZ050-056-061-142-242-148-248-149-249-151-251-155-255-  
160-260-100600-  
WEST CENTRAL FLORIDA  
 
CITY SKY/WX TMP DP RH WIND PRES REMARKS
 
CRYSTAL RIVER FAIR 73 72 94 CALM 30.15S  
INVERNESS FAIR 75 75 100 CALM 30.16S  
BROOKSVILLE CLEAR 76 73 91 E3 30.15F  
CLEARWATER AIR FAIR 77 70 78 CALM 30.14S  
ST PETE CLEARW CLEAR 77 74 90 E5 30.14R  
TAMPA INTL PTCLDY 78 72 81 NE3 30.14S  
TAMPA EXEC MOCLDY N/A N/A N/A CALM 30.15S  
PLANT CITY CLEAR 77 75 94 CALM 30.17S  
MACDILL AFB CLEAR 76 73 88 E5 30.10S  
ST PETERSBURG CLEAR 81 72 74 E8 30.12S  
SARASOTA CLEAR 76 74 93 E6 30.11F  
VENICE MOCLDY 77 73 88 NE7 30.13F  
 
STATION/POSITION SKY/WX TEMP WIND PRES WAVE SWELL
 
AIR SEA DIR/SP/G HT/PER HT/PER  
(F) (DEG/KT/KT) (MB) (FT/S) (FT/S)  
27.3N 84.3W 86 N/A 3/ 5  
CLEARWATER BEACH 79 89 80/ 5/ 6 1020.8R  
MIDDLE TAMPA BAY 79 110/ 10/ 11 N/A  
VENICE 77 86 50/ 6/ 7 1020.0S  
 

 
FLZ066-069-070-075>078-162-262-165-265-100600-  
SOUTHWEST FLORIDA AND KEYS  
 
CITY SKY/WX TMP DP RH WIND PRES REMARKS
 
PUNTA GORDA PTCLDY 76 73 91 E5 30.14F  
FT MYERS PTCLDY 78 71 79 E6 30.12R  
SOUTHWEST INTL CLEAR 77 73 87 NE6 30.13R  
NAPLES PTCLDY 78 76 93 E3 30.12R  
MARCO ISLAND PTCLDY 78 75 90 NE3 30.13R  
IMMOKALEE MOCLDY 75 75 100 CALM 30.12F  
MARATHON MOCLDY 84 75 74 E7 30.12R  
KEY WEST NAS CLOUDY 88 77 69 E10 30.11R HX 100  
KEY WEST INTL CLOUDY 84 78 82 SE12 30.12R HX 95  
 
STATION/POSITION SKY/WX TEMP WIND PRES WAVE SWELL
 
AIR SEA DIR/SP/G HT/PER HT/PER  
(F) (DEG/KT/KT) (MB) (FT/S) (FT/S)  
NAPLES 82 86 70/ 2/ 4 1019.0R  
26.0N 85.6W 85 85 120/ 12/ 16 1017.9S  
DRY TORTUGAS NOT AVBL  
SAND KEY 200/ 3/ 10 1019.7R  
SOMBRERO KEY 110/ 12/ 14 1019.0R  
LONG KEY 120/ 11/ 13 1019.3R  
 

 
FLZ067-068-071>074-168-172>174-100600-  
SOUTHEAST FLORIDA  
 
CITY SKY/WX TMP DP RH WIND PRES REMARKS
 
W PALM BEACH MOCLDY 84 75 74 SE12 30.15R  
FT LAUDER-EXEC PTCLDY 85 75 72 E13 30.12S  
FT LAUDERDALE PTCLDY 85 75 72 E14 30.12R  
POMPANO BEACH PTCLDY 85 75 72 E10 30.13R  
PEMBROKE PINES CLOUDY 84 75 74 E7 30.14R  
OPA LOCKA PTCLDY 84 75 74 E9 30.13R  
MIAMI PTCLDY 84 76 76 E9 30.12S  
WEST KENDALL PTCLDY 84 78 82 E9 30.12R HX 95  
HOMESTEAD PTCLDY 84 76 77 E12 30.10S  
 
STATION/POSITION SKY/WX TEMP WIND PRES WAVE SWELL
 
AIR SEA DIR/SP/G HT/PER HT/PER  
(F) (DEG/KT/KT) (MB) (FT/S) (FT/S)  
VIRGINIA KEY 87 87 90/ 12/ 15 1020.4S  
LAKE WORTH 85 87 130/ 15/ 18 1020.1R  
FOWEY ROCKS 85 85 100/ 15/ 17 1019.9S  
SETTLEMENT POINT 84 120/ 11/ 14 1021.0S  
 

 
 
 
 
CLICK HERE TO GO TO PREVIOUS BULLETINS.

The Nexlab FL Page Main Text Page